Location: Anjeux
(47.8815°N, 6.2076°E)
Time: 20:35:26
(UTC+00:00)

USA 267 - Pass Details

Date: 05 March 2021
Orbit: 1099 x 1108 km, 123.0° (Epoch: 20 March)

Event Time Altitude Azimuth Distance (km) Brightness Sun altitude
Rises 04:32:44 0° 68° (ENE) 3,923 7.8 -16.8°
Reaches altitude 10° 04:35:21 10° 61° (ENE) 2,964 6.7 -16.3°
Maximum altitude 04:41:21 41° 354° (N) 1,552 4.1 -15.4°
Enters shadow 04:46:19 15° 292° (WNW) 2,600 4.7 -14.5°
